Location: Pic du Midi - T1M
(42.9366°N, 0.1426°E)
Time: 11:22:23
(UTC+01:00)

X-37B - Pass Details

Date: 19 June 2021
Orbit: 383 x 392 km, 45.0° (Epoch: 01 July)

Event Time Altitude Azimuth Distance (km) Brightness Sun altitude
Exits shadow 03:56:50 - 285° (WNW) 2,006 3.9 -12.3°
Reaches altitude 10° 03:58:18 10° 286° (WNW) 1,399 3.2 -12.1°
Maximum altitude 04:01:27 80° 14° (NNE) 391 0.6 -11.7°
Drops below altitude 10° 04:04:36 10° 102° (ESE) 1,400 3.8 -11.3°
Sets 04:06:40 0° 104° (ESE) 2,254 4.9 -11.1°
